Weather History for Oxford, CT

Change the Weather History Date:

Sunday, January 26, 2014

  Actual Average Record
Temperature  
Mean Temperature 16 °F -  
Max Temperature 21 °F 30 °F 51 °F (2002)
Min Temperature 10 °F 16 °F 0 °F (2007)
Degree Days  
Heating Degree Days 50    
Moisture  
Dew Point 4 °F    
Average Humidity 59    
Maximum Humidity 73    
Minimum Humidity 38    
Precipitation  
Precipitation 0.00 in - - ()
Sea Level Pressure  
Sea Level Pressure 29.66 in    
Wind  
Wind Speed 7 mph (WSW)    
Max Wind Speed 14 mph    
Max Gust Speed 26 mph    
Visibility 10 miles    
Events      
Averages and records for this station are not official NWS values.
T = Trace of Precipitation, MM = Missing Value Source: NWS Daily Summary

Daily Weather History Graph

Daily Weather History Graph

Search for Another Location

Airport:

Trip Planner

Search our weather history database for the weather conditions in past years. The results will help you decide how hot, cold, wet, or windy it might be!

Date:

Astronomy

Jan. 26, 2014 Rise Set
Actual Time 7:09 AM EST 5:01 PM EST
Civil Twilight 6:39 AM EST 5:30 PM EST
Nautical Twilight 6:06 AM EST 6:04 PM EST
Astronomical Twilight 5:33 AM EST 6:37 PM EST
Moon 2:44 AM EST (1/26) 12:47 PM EST (1/26)
Length of Visible Light 10h 50m
Length of Day
9h 51m
Waning Crescent, 24% of the Moon is Illuminated
Jan 26
Waning Crescent
Jan 30
New
Feb 6
First Quarter
Feb 14
Full
Feb 22
Last Quarter

Hourly Weather History & Observations

Time (EST) Temp. Windchill Dew Point Humidity Pressure Visibility Wind Dir Wind Speed Gust Speed Precip Events Conditions
12:15 AM 17.6 °F 10.7 °F 10.4 °F 73% 29.39 in 10.0 mi West 4.6 mph - N/A   Clear
12:35 AM 17.6 °F 9.3 °F 10.4 °F 73% 29.41 in 10.0 mi West 5.8 mph - N/A   Clear
12:55 AM 17.6 °F 10.7 °F 10.4 °F 73% 29.41 in 10.0 mi West 4.6 mph - N/A   Clear
1:15 AM 17.6 °F 8.2 °F 10.4 °F 73% 29.42 in 10.0 mi West 6.9 mph - N/A   Partly Cloudy
1:35 AM 17.6 °F 8.2 °F 10.4 °F 73% 29.43 in 10.0 mi West 6.9 mph - N/A   Partly Cloudy
1:55 AM 17.6 °F 8.2 °F 10.4 °F 73% 29.45 in 10.0 mi West 6.9 mph - N/A   Partly Cloudy
2:15 AM 17.6 °F 9.3 °F 8.6 °F 68% 29.46 in 10.0 mi WNW 5.8 mph - N/A   Clear
2:35 AM 17.6 °F 7.3 °F 8.6 °F 68% 29.49 in 10.0 mi West 8.1 mph - N/A   Scattered Clouds
2:55 AM 17.6 °F 6.4 °F 8.6 °F 68% 29.51 in 10.0 mi WNW 9.2 mph 16.1 mph N/A   Mostly Cloudy
3:15 AM 17.6 °F 7.3 °F 8.6 °F 68% 29.52 in 10.0 mi WNW 8.1 mph - N/A   Scattered Clouds
3:35 AM 17.6 °F 8.2 °F 8.6 °F 68% 29.54 in 10.0 mi WNW 6.9 mph - N/A   Mostly Cloudy
3:55 AM 17.6 °F 6.4 °F 6.8 °F 63% 29.56 in 10.0 mi WNW 9.2 mph 17.3 mph N/A   Scattered Clouds
4:15 AM 17.6 °F 4.3 °F 3.2 °F 53% 29.58 in 10.0 mi West 12.7 mph 23.0 mph N/A   Clear
4:35 AM 15.8 °F 1.4 °F -0.4 °F 49% 29.60 in 7.0 mi WNW 13.8 mph 26.5 mph N/A   Clear
4:55 AM 15.8 °F 2.7 °F -2.2 °F 45% 29.61 in 10.0 mi West 11.5 mph 18.4 mph N/A   Partly Cloudy
5:15 AM 14.0 °F 2.0 °F -4.0 °F 45% 29.62 in 10.0 mi WNW 9.2 mph 21.9 mph N/A   Clear
5:35 AM 12.2 °F -0.2 °F -4.0 °F 48% 29.63 in 10.0 mi West 9.2 mph 19.6 mph N/A   Clear
5:48 AM 12.2 °F - -5.8 °F 45% 29.64 in 10.0 mi North - - N/A   Clear
6:48 AM 12.2 °F 1.7 °F -5.8 °F 45% 29.68 in 10.0 mi West 6.9 mph 17.3 mph N/A   Clear
7:48 AM 10.4 °F -4.1 °F -5.8 °F 48% 29.73 in 10.0 mi West 11.5 mph 20.7 mph N/A   Clear
8:50 AM 12.2 °F -1.8 °F -4.0 °F 48% 29.77 in 10.0 mi West 11.5 mph 23.0 mph N/A   Clear
9:50 AM 14.0 °F 3.9 °F -5.8 °F 41% 29.80 in 10.0 mi West 6.9 mph 19.6 mph N/A   Partly Cloudy
10:48 AM 15.8 °F 2.1 °F -5.8 °F 38% 29.83 in 10.0 mi West 12.7 mph 24.2 mph N/A   Partly Cloudy
4:45 PM 15.8 °F 6.1 °F 1.4 °F 53% - 10.0 mi WSW 6.9 mph 16.1 mph N/A   Mostly Cloudy
5:45 PM 15.8 °F 7.2 °F 3.2 °F 58% 29.83 in 10.0 mi SSW 5.8 mph - N/A   Mostly Cloudy
6:45 PM 14.0 °F 6.5 °F 3.2 °F 62% 29.82 in 10.0 mi SW 4.6 mph - N/A   Mostly Cloudy
7:55 PM 15.8 °F 8.6 °F 5.0 °F 62% 29.83 in 10.0 mi SSW 4.6 mph - N/A   Overcast
8:45 PM 17.6 °F 8.2 °F 5.0 °F 58% 29.82 in 10.0 mi SW 6.9 mph - N/A   Overcast
9:15 PM 17.6 °F 9.3 °F 6.8 °F 63% 29.81 in 10.0 mi SSW 5.8 mph - N/A   Overcast
9:35 PM 19.4 °F 12.8 °F 6.8 °F 58% 29.81 in 10.0 mi SSW 4.6 mph - N/A   Overcast
9:55 PM 19.4 °F 14.3 °F 6.8 °F 58% 29.81 in 10.0 mi SSW 3.5 mph - N/A   Overcast
10:15 PM 19.4 °F 11.5 °F 8.6 °F 63% 29.81 in 10.0 mi SSW 5.8 mph - N/A   Overcast
10:35 PM 19.4 °F 11.5 °F 8.6 °F 63% 29.81 in 10.0 mi SSW 5.8 mph - N/A   Overcast
10:55 PM 21.2 °F 16.4 °F 8.6 °F 58% 29.80 in 10.0 mi SSW 3.5 mph - N/A   Overcast
11:15 PM 21.2 °F - 8.6 °F 58% 29.80 in 10.0 mi Calm Calm - N/A   Overcast
11:35 PM 21.2 °F - 10.4 °F 63% 29.79 in 10.0 mi Calm Calm - N/A   Overcast
11:55 PM 21.2 °F 16.4 °F 10.4 °F 63% 29.78 in 10.0 mi South 3.5 mph - N/A   Overcast